Regional Weather Roundup
Issued by NWS Goodland, KS

Home | Current Version | Previous Version | Graphics & Text | Print | Product List | Glossary On
Versions: 1 2 3 4 5 6 7 8 9 10 11 12 13 14 15 16 17 18 19 20 21 22 23 24 25 26 27 28 29 30 31 32 33 34 35 36 37 38 39 40 41 42 43 44 45 46 47 48 49 50
000
ASUS43 KGLD 201059
RWRGLD

GOODLAND FORECAST AREA HOURLY WEATHER ROUNDUP
NATIONAL WEATHER SERVICE GOODLAND KS
500 AM MDT MON OCT 20 2014

...OFFICIAL OBSERVATIONS...

CITY           SKY/WX    TMP DP  RH WIND       PRES   REMARKS
GOODLAND KS    CLEAR     39  36  89 W6        30.12F
HILL CITY KS   CLEAR     42  40  92 W5        30.07R
IMPERIAL NEB   CLEAR     39  33  79 NW3       30.11S
MCCOOK NEB     CLEAR     39  37  92 SW9       30.10R
AKRON CO       CLEAR     46  38  73 SW7       30.14S
BURLINGTON CO  CLEAR     39  35  86 W6        30.14R
LIMON CO       CLEAR     36  34  92 N3        30.19R
$$

...UNOFFICIAL OBSERVATIONS...

CITY           SKY/WX    TMP DP  RH WIND       PRES   REMARKS
COLBY KS       CLEAR     45  45 100 NW10      30.10S
GOVE KS          N/A     43  32  65 MISG        N/A
NORTON KS      CLEAR     39  36  87 W5        30.07R
SHARON SPRINGS   N/A     44  41  90 CALM        N/A
TRENTON NEB      N/A     44  32  63 N8          N/A
KIT CARSON CO    N/A     44  38  81 CALM        N/A
YUMA CO          N/A     39  35  86 W6          N/A
$$



USA.gov is the U.S. government's official web portal to all federal, state and local government web resources and services.